Precipitable_Water
0.57 0.48 0.48 0.41 0.39 0.36 0.37 0.36 0.30 0.35 0.35 0.31 0.33 0.33 0.37 0.45 0.50 0.59 0.79 0.90 1.04 1.22 1.37 1.41 1.44 1.40 1.63 1.73 1.83 1.89 1.90 2.08 2.14 2.04 1.89 1.86 1.87 1.97 2.11 2.17 2.09 2.02 2.17 2.29
0.50 0.45 0.43 0.45 0.40 0.35 0.35 0.30 0.32 0.31 0.32 0.29 0.33 0.32 0.39 0.43 0.50 0.58 0.69 0.83 0.95 1.13 1.30 1.39 1.43 1.49 1.50 1.60 1.62 1.72 1.85 1.96 1.99 2.03 1.98 1.91 1.93 1.95 2.07 2.15 2.11 2.06 2.22 2.26
0.46 0.49 0.44 0.42 0.36 0.33 0.32 0.28 0.28 0.27 0.29 0.36 0.38 0.39 0.44 0.51 0.60 0.68 0.69 0.82 0.91 1.05 1.11 1.26 1.34 1.46 1.46 1.47 1.61 1.66 1.76 1.85 1.91 1.97 2.06 1.99 1.98 1.92 2.02 2.08 2.11 2.21 2.25 2.25
0.42 0.46 0.40 0.38 0.36 0.33 0.29 0.35 0.31 0.30 0.31 0.33 0.41 0.40 0.47 0.53 0.58 0.68 0.71 0.77 0.89 1.00 1.15 1.20 1.29 1.40 1.47 1.46 1.64 1.69 1.70 1.79 1.83 1.87 1.87 1.93 1.76 1.65 1.74 1.85 2.05 2.14 2.20 2.20
0.31 0.35 0.35 0.33 0.36 0.35 0.33 0.37 0.34 0.33 0.34 0.36 0.37 0.39 0.49 0.60 0.61 0.70 0.81 0.85 0.91 0.90 1.05 1.12 1.16 1.35 1.56 1.62 1.64 1.57 1.77 1.83 1.73 1.74 1.81 1.83 1.72 1.71 1.82 1.81 1.74 1.90 2.06 2.18
0.30 0.40 0.37 0.37 0.38 0.39 0.38 0.35 0.36 0.35 0.37 0.34 0.36 0.35 0.48 0.55 0.61 0.69 0.81 0.89 0.92 0.93 0.96 1.08 1.19 1.34 1.55 1.66 1.76 1.74 1.76 1.73 1.74 1.75 1.82 1.82 1.76 1.77 1.68 1.73 1.75 1.77 1.87 1.95
0.22 0.29 0.34 0.37 0.35 0.39 0.37 0.34 0.34 0.30 0.33 0.35 0.39 0.36 0.49 0.56 0.67 0.74 0.78 0.85 0.93 1.01 1.03 1.11 1.20 1.30 1.44 1.54 1.63 1.68 1.79 1.73 1.85 1.88 1.83 1.77 1.80 1.81 1.77 1.75 1.72 1.69 1.69 1.71
0.20 0.23 0.31 0.41 0.37 0.41 0.38 0.39 0.36 0.30 0.30 0.34 0.40 0.33 0.57 0.62 0.73 0.82 0.86 0.93 1.02 1.09 1.15 1.18 1.23 1.34 1.48 1.57 1.62 1.64 1.66 1.76 1.90 1.91 1.91 1.95 1.94 1.89 1.85 1.87 1.82 1.76 1.72 1.74
0.29 0.38 0.45 0.46 0.46 0.43 0.42 0.39 0.43 0.35 0.37 0.31 0.39 0.42 0.48 0.61 0.67 0.80 0.85 0.98 1.07 1.16 1.21 1.23 1.31 1.41 1.47 1.56 1.59 1.59 1.60 1.65 1.82 1.80 1.85 1.94 2.04 1.93 1.91 1.96 1.98 1.99 2.00 1.88
0.39 0.37 0.45 0.47 0.47 0.47 0.46 0.50 0.39 0.45 0.35 0.33 0.38 0.38 0.40 0.53 0.62 0.75 0.86 0.98 1.07 1.15 1.19 1.30 1.32 1.38 1.46 1.52 1.48 1.49 1.56 1.58 1.71 1.82 1.82 1.78 1.91 2.01 1.96 2.00 2.00 1.98 2.04 2.03
0.39 0.38 0.43 0.46 0.44 0.46 0.45 0.43 0.46 0.45 0.43 0.36 0.31 0.36 0.55 0.54 0.67 0.74 0.80 0.95 1.09 1.20 1.19 1.22 1.25 1.32 1.42 1.44 1.39 1.44 1.50 1.52 1.58 1.72 1.87 1.86 1.95 1.98 2.00 1.90 1.65 1.61 2.01 2.06
0.42 0.40 0.36 0.41 0.48 0.50 0.49 0.46 0.47 0.42 0.42 0.44 0.37 0.34 0.62 0.60 0.68 0.73 0.80 0.93 1.08 1.16 1.20 1.22 1.29 1.38 1.37 1.34 1.29 1.30 1.36 1.39 1.51 1.70 1.81 1.94 2.05 2.03 1.95 1.70 1.62 1.36 1.88 2.02
0.49 0.42 0.41 0.42 0.44 0.48 0.46 0.50 0.50 0.49 0.43 0.36 0.35 0.35 0.60 0.58 0.58 0.73 0.82 0.92 1.07 1.11 1.21 1.24 1.23 1.24 1.30 1.38 1.40 1.41 1.43 1.43 1.55 1.59 1.63 1.81 1.87 1.96 2.04 1.93 1.73 1.70 1.92 2.00
0.57 0.47 0.46 0.43 0.54 0.56 0.48 0.49 0.49 0.46 0.37 0.39 0.40 0.40 0.45 0.44 0.47 0.53 0.63 0.78 1.12 1.16 1.17 1.24 1.26 1.22 1.29 1.33 1.36 1.37 1.39 1.49 1.54 1.50 1.61 1.69 1.81 1.78 1.80 1.91 1.90 1.82 2.04 2.08
0.57 0.49 0.55 0.53 0.52 0.50 0.49 0.48 0.47 0.42 0.40 0.35 0.37 0.35 0.38 0.41 0.49 0.56 0.62 0.76 0.91 0.97 1.01 1.11 1.14 1.19 1.21 1.23 1.27 1.27 1.20 1.29 1.45 1.57 1.59 1.59 1.67 1.66 1.63 1.75 1.84 2.01 2.05 1.97
0.58 0.49 0.51 0.47 0.50 0.48 0.42 0.43 0.43 0.41 0.39 0.38 0.35 0.33 0.55 0.56 0.63 0.65 0.71 0.79 0.84 0.89 0.92 0.99 1.09 1.08 1.09 1.12 1.12 1.15 1.15 1.12 1.26 1.27 1.33 1.46 1.55 1.68 1.84 1.91 1.95 2.55 1.90 2.05
0.51 0.48 0.45 0.38 0.48 0.44 0.37 0.40 0.40 0.39 0.38 0.36 0.31 0.48 0.63 0.56 0.61 0.67 0.71 0.75 0.81 0.90 0.97 1.02 1.05 1.09 1.14 1.17 1.19 1.19 1.20 1.21 1.15 1.15 1.17 1.25 1.29 1.27 1.33 1.44 1.63 1.83 1.90 1.99
0.47 0.46 0.44 0.36 0.42 0.27 0.41 0.48 0.37 0.29 0.36 0.45 0.45 0.53 0.61 0.67 0.73 0.79 0.83 0.81 0.84 0.91 0.95 0.97 1.02 1.05 1.09 1.14 1.15 1.16 1.17 1.17 1.19 1.15 1.11 1.12 1.15 1.16 1.16 1.15 1.21 1.31 1.64 1.85
0.44 0.40 0.36 0.31 0.28 0.29 0.30 0.42 0.40 0.39 0.41 0.54 0.54 0.60 0.65 0.70 0.73 0.73 0.89 0.90 0.87 0.84 0.83 0.86 0.91 0.94 0.99 1.04 1.06 1.06 1.05 1.07 1.06 1.08 1.12 1.13 1.12 1.14 1.17 1.13 1.05 1.12 1.19 1.34
0.41 0.38 0.29 0.30 0.21 0.21 0.43 0.51 0.54 0.52 0.34 0.66 0.62 0.62 0.64 0.66 0.51 0.66 0.81 0.80 0.75 0.76 0.77 0.75 0.77 0.78 0.78 0.81 0.88 0.91 0.94 0.97 0.97 0.99 1.00 1.06 1.08 1.08 1.07 1.15 1.22 1.13 1.11 1.18
0.36 0.36 0.29 0.31 0.30 0.35 0.55 0.56 0.59 0.35 0.46 0.65 0.64 0.63 0.61 0.56 0.61 0.66 0.67 0.66 0.71 0.76 0.78 0.83 0.87 0.85 0.84 0.85 0.81 0.74 0.76 0.79 0.90 0.98 1.02 1.03 1.03 1.04 1.10 1.09 1.21 1.21 1.16 1.10
0.34 0.34 0.34 0.37 0.32 0.29 0.62 0.55 0.41 0.56 0.62 0.62 0.61 0.60 0.58 0.59 0.58 0.58 0.65 0.76 0.80 0.81 0.85 0.91 0.94 0.98 1.02 1.03 1.01 0.95 0.94 0.99 0.99 0.93 0.91 0.93 0.96 0.99 0.95 1.02 1.17 1.24 1.16 1.12
0.32 0.38 0.38 0.38 0.42 0.61 0.59 0.54 0.58 0.58 0.55 0.55 0.55 0.56 0.58 0.58 0.61 0.71 0.76 0.80 0.83 0.86 0.90 0.97 1.01 1.03 1.08 1.09 1.09 1.00 0.98 1.00 1.00 1.02 1.02 1.01 0.91 0.88 0.96 0.91 0.94 1.08 1.15 1.07
0.43 0.47 0.34 0.38 0.48 0.49 0.53 0.57 0.61 0.61 0.59 0.61 0.62 0.64 0.69 0.72 0.77 0.80 0.84 0.85 0.86 0.89 0.92 1.01 1.05 1.04 1.06 1.09 1.10 1.07 1.07 1.05 1.00 0.97 1.01 1.04 1.03 0.98 0.93 0.86 0.84 0.87 0.97 0.95
0.46 0.44 0.42 0.38 0.46 0.52 0.52 0.58 0.61 0.63 0.67 0.70 0.73 0.76 0.80 0.82 0.82 0.85 0.86 0.88 0.91 0.94 1.01 1.07 1.08 1.09 1.10 1.14 1.12 1.12 1.12 1.11 1.01 1.00 1.04 1.01 1.04 1.04 1.01 1.00 0.93 0.87 0.91 1.01
0.49 0.46 0.38 0.38 0.52 0.53 0.57 0.65 0.68 0.66 0.67 0.76 0.79 0.81 0.86 0.88 0.87 0.92 0.92 0.97 1.00 1.02 1.08 1.11 1.12 1.12 1.14 1.19 1.17 1.12 1.14 1.11 1.05 1.01 1.04 1.05 1.03 1.02 1.03 0.99 0.96 0.98 0.89 0.94
Wind_Speed
7 6 7 1 1 3 4 5 8 6 6 7 8 8 9 8 6 5 3 5 6 6 5 5 3 1 3 3 6 9 10 10 8 9 9 10 11 10 10 9 7 14 14 12
10 8 3 3 3 4 5 8 7 8 5 7 9 10 8 3 3 4 5 5 6 6 7 6 5 3 2 3 6 7 9 9 10 9 9 9 9 9 9 9 11 12 13 12
13 4 5 6 5 6 6 7 6 7 7 6 6 3 0 1 2 3 0 3 4 7 8 7 7 7 5 3 4 5 8 9 10 10 9 9 9 9 9 9 11 13 14 14
11 9 8 8 8 6 10 3 6 6 6 4 3 2 4 2 3 5 5 2 2 5 7 8 8 9 8 5 3 5 6 8 9 9 9 9 9 9 9 9 10 11 13 14
9 9 10 9 8 5 7 5 7 7 6 3 2 4 4 3 2 4 3 2 1 3 5 8 10 10 9 8 5 5 5 6 7 9 9 9 9 9 10 10 10 10 11 14
11 8 9 10 7 8 7 9 7 6 4 6 2 3 4 1 4 6 6 5 4 4 5 6 8 9 9 9 9 8 5 6 7 8 10 10 10 10 10 11 11 11 11 12
13 14 11 11 11 7 8 9 5 4 5 2 3 5 3 3 4 6 6 6 5 4 4 5 6 8 9 9 9 9 8 8 10 11 12 12 12 12 11 12 12 12 12 13
9 8 9 7 12 8 8 6 3 3 3 3 2 5 0 4 5 5 5 4 4 4 4 4 6 7 10 10 9 10 11 11 9 10 12 13 14 13 13 13 13 13 14 14
7 3 3 5 8 9 6 8 4 8 4 7 2 4 9 4 6 6 6 5 4 4 4 5 5 6 8 9 10 11 11 12 13 12 12 15 16 16 14 14 14 15 15 16
5 5 6 4 6 5 7 3 6 3 5 7 7 10 9 8 8 7 7 6 6 6 7 7 7 7 8 9 11 12 12 14 15 15 14 14 16 17 16 16 16 17 17 17
9 9 6 8 9 6 7 9 6 8 9 11 12 9 8 10 11 11 10 9 10 10 10 10 10 9 9 9 10 12 13 14 14 15 16 16 16 17 17 17 15 22 19 18
12 9 11 9 8 10 11 11 11 10 12 11 14 16 9 11 12 12 12 11 11 12 11 11 11 11 11 12 12 13 14 15 14 15 15 16 17 18 19 18 19 12 17 17
11 11 10 10 11 13 13 11 13 14 15 16 15 13 11 13 15 16 15 15 14 14 14 14 14 14 15 15 16 17 16 16 17 18 17 16 16 16 18 19 17 14 14 15
13 14 14 12 6 6 10 14 15 17 18 19 18 20 17 18 17 20 20 19 18 17 17 17 18 17 18 18 18 17 16 15 15 14 15 15 15 15 16 18 19 17 15 14
11 14 12 13 14 15 16 17 18 20 22 21 21 22 21 20 21 21 20 19 18 18 18 18 19 19 19 19 19 18 17 16 14 13 15 17 18 18 17 17 20 19 18 17
12 14 15 18 16 18 21 21 22 22 21 22 22 23 15 16 17 18 17 18 18 18 19 20 20 20 20 20 20 20 19 18 17 15 15 16 16 17 18 19 22 17 16 17
15 16 16 20 16 19 22 21 20 22 21 20 21 16 16 18 18 18 18 18 18 19 20 21 22 23 23 23 23 23 23 22 21 20 19 18 18 18 17 17 18 18 17 19
16 16 17 18 17 21 14 14 16 18 18 18 19 18 19 20 20 20 20 20 21 22 23 23 24 25 26 27 27 27 27 27 26 25 24 23 22 22 21 21 20 20 19 21
16 17 16 15 17 19 17 13 15 16 17 17 19 19 20 21 22 24 24 24 25 26 27 28 29 31 31 32 32 32 32 32 32 31 30 29 28 28 26 26 25 24 23 22
10 13 14 11 15 16 10 11 15 17 20 17 19 20 22 23 24 19 21 24 27 28 30 31 32 34 35 35 36 38 38 39 38 37 37 36 35 34 33 32 31 29 28 27
10 11 14 14 15 13 13 16 17 18 16 19 21 22 24 26 26 29 30 31 30 30 31 31 32 33 34 34 36 38 39 41 41 42 43 41 40 39 38 36 35 34 33 32
11 11 11 12 15 20 15 16 18 19 21 23 25 27 30 30 31 31 30 29 30 31 32 33 33 34 35 35 35 36 37 37 39 40 43 44 43 43 42 40 38 37 36 35
11 11 12 13 13 15 18 19 21 23 25 27 29 29 30 30 30 30 30 31 32 33 35 35 36 36 35 34 36 37 36 36 37 39 40 40 41 42 43 44 44 42 40 38
11 12 14 15 13 17 19 23 25 25 26 27 28 29 29 30 31 32 32 33 35 36 37 37 37 37 36 35 35 36 36 36 36 37 38 38 38 37 38 39 41 42 42 40
11 12 14 17 19 19 21 23 24 25 27 29 29 29 31 33 33 34 35 36 38 39 38 37 36 36 36 36 35 34 35 35 34 34 35 36 37 37 36 36 37 40 41 41
11 12 15 16 19 21 23 24 27 29 29 28 30 31 32 33 35 36 38 39 39 39 37 36 37 37 36 34 34 33 33 33 32 32 32 33 35 36 36 34 34 36 40 41
Wind_Direction
189 218 215 99 308 316 302 291 306 309 322 303 304 297 298 297 273 280 258 240 212 204 193 187 196 199 259 249 238 242 250 264 245 235 241 247 253 252 251 258 240 204 217 221
200 225 186 228 279 295 295 298 292 307 310 301 301 302 305 275 286 300 275 231 214 198 191 198 216 234 253 281 254 247 248 246 240 242 244 249 250 251 249 240 221 218 227 227
222 208 219 246 258 285 269 306 321 317 317 290 311 263 312 96 66 18 14 199 214 206 209 221 228 230 248 285 296 262 252 244 243 243 245 248 246 250 247 240 231 233 230 228
227 231 237 241 256 273 299 330 310 302 306 348 347 102 77 134 108 61 59 88 209 211 221 233 237 236 239 263 292 285 266 245 244 242 245 244 245 251 248 244 239 235 233 230
231 223 224 242 254 274 297 302 310 294 287 262 47 274 99 129 134 351 350 351 332 249 237 244 239 240 240 240 264 314 288 250 249 242 243 246 248 252 253 248 242 242 239 236
239 228 243 248 254 264 282 279 274 257 252 237 31 305 118 4 320 315 302 295 299 285 258 250 242 243 241 247 258 267 291 254 249 252 248 248 251 254 252 250 250 248 245 243
226 233 240 242 253 249 248 255 258 233 219 263 353 270 353 325 327 328 313 292 288 285 277 264 254 249 241 247 256 258 264 280 263 263 254 250 251 252 255 255 254 254 253 252
218 206 219 219 234 257 222 281 284 257 274 309 301 270 276 304 310 320 317 300 283 274 280 278 274 262 245 254 260 263 266 268 273 276 255 255 254 254 255 255 258 257 259 259
207 209 213 240 219 225 207 236 314 279 232 272 292 281 277 279 305 312 311 293 284 274 277 284 287 273 252 256 263 268 272 272 272 273 273 258 254 253 254 257 260 261 264 266
221 219 222 188 204 210 246 221 251 237 282 301 309 297 280 311 299 307 303 297 287 276 286 280 286 276 261 263 270 274 274 276 276 265 270 266 254 253 255 260 268 267 269 269
232 245 207 226 228 232 221 238 250 284 284 296 294 307 304 298 293 290 290 289 284 282 281 273 276 269 269 271 276 280 283 281 278 268 264 261 254 255 255 258 277 269 266 267
229 252 246 244 238 243 254 269 269 277 289 287 290 292 296 298 294 292 284 283 287 280 277 270 270 271 272 272 281 284 287 286 278 275 268 262 259 259 256 263 283 278 256 264
229 244 237 241 233 239 249 252 266 277 283 284 288 295 299 299 295 289 286 280 280 280 274 267 269 271 274 275 282 286 285 287 282 274 262 260 265 263 261 262 271 271 265 260
237 251 252 266 274 265 249 260 264 274 280 289 284 288 286 297 296 293 288 279 276 275 274 268 270 272 273 275 280 284 285 288 285 270 259 260 265 266 269 263 256 260 264 262
245 253 252 259 266 265 271 273 271 274 280 281 290 293 293 297 298 294 287 279 274 272 273 271 270 273 272 272 273 276 280 282 285 273 264 262 265 268 271 267 255 252 253 257
250 258 261 265 264 268 272 274 274 275 277 281 284 288 292 295 295 295 293 284 276 274 272 271 271 272 270 271 270 272 273 276 277 273 269 268 268 269 268 265 260 234 242 253
259 263 264 267 270 272 274 274 271 277 278 283 282 291 290 291 292 293 290 285 280 277 276 275 273 271 271 270 268 269 271 271 271 270 268 267 267 267 267 267 267 272 259 256
260 261 265 267 266 266 280 286 282 281 282 280 281 287 291 292 291 288 287 285 282 281 278 277 275 274 272 271 270 269 269 268 267 266 266 266 266 266 266 266 265 267 264 258
259 258 261 262 262 269 271 277 285 285 285 283 286 287 291 291 292 286 281 284 284 282 279 278 277 275 274 272 271 270 268 267 266 265 264 263 265 264 264 263 264 263 262 261
258 254 256 257 270 277 286 284 294 290 284 293 291 290 292 293 290 292 291 290 288 286 283 282 281 279 275 273 272 270 269 267 265 265 264 263 263 262 262 261 260 260 259 260
253 259 254 258 271 279 286 290 290 282 295 296 296 295 293 292 291 291 290 289 288 287 286 285 283 281 278 276 274 271 270 268 267 265 263 262 261 260 260 260 258 257 257 257
261 266 263 272 279 274 292 287 289 296 295 296 295 295 294 293 292 291 290 290 290 290 289 288 285 283 281 278 275 274 272 272 269 266 264 261 260 259 258 257 256 255 255 256
266 274 283 282 292 289 292 293 294 295 296 297 297 296 294 293 292 291 290 291 290 291 291 289 287 285 283 280 276 274 274 273 271 268 265 263 260 258 257 256 254 253 252 254
269 278 279 289 287 293 294 294 295 295 297 299 298 297 295 293 293 291 291 292 292 292 291 289 287 285 283 282 279 275 275 274 272 269 265 261 258 257 256 255 252 250 249 249
285 281 287 287 289 296 297 300 299 296 299 299 298 297 296 295 293 292 292 293 293 292 290 288 285 285 283 280 278 275 275 274 270 268 266 261 256 254 255 254 253 249 247 246
279 290 291 298 304 301 301 303 303 302 300 300 300 300 298 297 295 294 293 294 294 293 290 288 286 285 283 279 278 276 274 273 269 268 267 263 257 253 252 254 253 249 247 245